User: anonymous   Login
Location: Raven Hill Discovery Center
(45.1336°N, 85.0553°W)
Time: 17:13:10
(UTC-05:00)
Language:

Cosmos 1470 - Orbit

View from above orbital plane
View from above orbital plane
View from above satellite
View from above satellite

Ground track
Ground track

The orbit data is extracted from the following two-line orbital elements,

1 14147U 83061A   18050.42659740  .00001065  00000-0  61965-4 0  9999
2 14147  82.4875 156.1662 0017121 128.1780 232.0995 15.10873479642141
Epoch (UTC): 19 February 2018 10:14:18
Eccentricity: 0.0017121
inclination: 82.4875°
perigee height: 522 km
apogee height: 545 km
right ascension of ascending node: 156.1662°
argument of perigee: 128.1780°
revolutions per day: 15.10873479
mean anomaly at epoch: 232.0995°
orbit number at epoch: 64214

The dashed part of the orbit path shows where the satellite is in the earth's shadow,  

DLR